Location: Newark
(26.8229°N, 81.7649°W)
Time: 05:40:16
(UTC+00:00)

Envisat - Visible Passes

Search period start: 22 January 2020 00:00
Search period end: 01 February 2020 00:00
Orbit: 764 x 766 km, 98.1° (Epoch: 21 January)

Date Brightness Start Highest point End Pass type
(mag) Time Alt. Az. Time Alt. Az. Time Alt. Az.
22 Jan 4.6 11:30:55 10° NNE 11:35:40 39° E 11:40:23 10° SSE visible
23 Jan 5.3 00:17:08 10° SSW 00:21:21 27° W 00:25:36 10° NW visible
23 Jan 6.1 10:55:48 10° ENE 10:58:44 15° E 11:01:41 10° SE visible
23 Jan 3.4 23:39:29 10° S 23:44:31 69° WSW 23:49:35 10° NNW visible
25 Jan 6.2 00:44:30 10° SW 00:46:58 14° W 00:49:27 10° WNW visible
25 Jan 5.2 11:19:56 10° NE 11:24:21 30° E 11:28:44 10° SSE visible
26 Jan 4.8 00:05:26 10° SSW 00:10:02 35° W 00:14:39 10° NNW visible
26 Jan 6.4 10:45:51 10° ENE 10:47:22 11° E 10:48:54 10° ESE visible
26 Jan 3.0 23:28:10 10° SSE 23:33:15 89° E 23:38:20 10° NNW visible
27 Jan 3.8 11:44:52 10° NNE 11:49:52 59° E 11:54:51 10° S visible
28 Jan 5.9 00:32:11 10° SW 00:35:37 18° W 00:39:03 10° NW visible
28 Jan 5.7 11:09:03 10° NE 11:13:00 23° E 11:16:57 10° SSE visible
28 Jan 4.2 23:53:52 10° S 23:58:43 46° W 00:03:36 10° NNW visible
30 Jan 4.4 11:33:44 10° NNE 11:38:34 44° E 11:43:22 10° S visible
31 Jan 5.5 00:20:14 10° SSW 00:24:16 24° W 00:28:20 10° NW visible
31 Jan 6.1 10:58:22 10° NE 11:01:40 17° E 11:04:56 10° SE visible
31 Jan 3.6 23:42:25 10° S 23:47:26 62° W 23:52:27 10° NNW visible
